Location: Dana
(41.8364°N, 106.7042°W)
Time: 02:16:20
(UTC+00:00)

Altair - Pass Details

Date: 11 May 2026
Orbit: 1501 x 1682 km, 47.2° (Epoch: 6 June)

Event Time Altitude Azimuth Distance (km) Brightness Sun altitude
Rises 20:40:55 0° 295° (WNW) 4,934 10.3 58.4°
Reaches altitude 10° 20:44:35 10° 286° (WNW) 3,933 10.0 57.9°
Maximum altitude 20:52:53 31° 230° (SW) 2,610 10.1 56.7°
Drops below altitude 10° 21:01:00 10° 173° (S) 3,825 9.9 55.4°
Sets 21:04:33 0° 163° (SSE) 4,780 10.2 54.9°
